Location: Waco, TX
(31.5480°N, 97.1670°W)
Time: 08:45:12
(UTC-05:00)

ISS - Pass Details

Date: 22 June 2018
Orbit: 402 x 406 km, 51.6° (Epoch: 18 June)

Event Time Altitude Azimuth Distance (km) Brightness Sun altitude
Rises 09:33:20 0° 251° (WSW) 2,314 -0.5 37.4°
Reaches altitude 10° 09:35:40 10° 265° (W) 1,457 -1.4 37.8°
Maximum altitude 09:38:23 24° 322° (NW) 890 -2.1 38.4°
Drops below altitude 10° 09:41:07 10° 18° (NNE) 1,463 -0.6 39.0°
Sets 09:43:28 0° 33° (NNE) 2,325 0.5 39.5°
